{"data":{"norad_id":50319,"intl_designator":"2021-128A","name":"INMARSAT 6-F1","alt_names":[],"object_type":"PAYLOAD","status":"ACTIVE","operator":null,"country":"IM","launch_date":"2021-12-22","launch_site_code":"TANSC","launch_vehicle":null,"mission":null,"orbit_class":"UNKNOWN","rcs_meters":null,"size_class":null,"mass_kg":null,"dimensions":null,"purposes":["comms"],"wikipedia_slug":null,"has_3d_model":false,"image_url":null,"decayed_at":null,"tle_current":{"epoch":"2026-09-19T14:32:18.991104Z","epoch_age_seconds":99265,"freshness":"FRESH","line1":"1 50319U 21128A   26262.60577536 -.00000177  00000+0  00000+0 0  9993","line2":"2 50319   0.0181 146.9419 0000299 322.4700 190.9681  1.00273650 17200","mean_motion":1.0027365,"eccentricity":2.99e-5,"inclination_deg":0.0181,"raan_deg":146.9419,"arg_perigee_deg":322.47,"mean_anomaly_deg":190.9681,"bstar":0,"rev_number":1720,"period_min":1436.0701939144,"perigee_km":35784.811432239,"apogee_km":35787.332851946,"semimajor_km":42164.209142093,"source":"CELESTRAK","updated_at":"2026-09-20T09:00:35.302350Z"}}}